Вернуться в каталог

STARLINK-32009

АктивенСвязьVLEO
NORAD 60104·PAYLOAD·🇺🇸 United States

Запущен Jun 23, 2024 с Cape Canaveral Space Force Station

Loading…

Ближайшие Пролёты (ближайшие 24 часа)

TLE

СвежийSource: CelesTrak SupGP

Эпоха: Sep 14, 2026, 14:17 UTC

1 60104C 24117P   26257.59562500 -.00033430  00000+0 -98798-3 0  2575
2 60104  53.1584 237.3015 0001352  85.3096 214.4100 15.34397954    15

Отслеживайте STARLINK-32009 в реальном времени с AllMySat

Download on the App Store